Regional Weather Roundup
Issued by NWS

Home | Current Version | Previous Version | Graphics & Text | Print | Product List | Glossary On
Versions: 1 2 3 4 5 6 7 8 9 10 11 12 13 14 15 16 17 18 19 20 21 22 23 24 25 26 27 28 29 30 31 32 33 34 35 36 37 38 39 40 41 42 43 44 45 46 47 48 49 50
000
ASUS45 KABQ 230401
RWRNM
NEW MEXICO REGIONAL WEATHER ROUNDUP
NATIONAL WEATHER SERVICE ALBUQUERQUE NM
900 PM MST MON JAN 22 2018

NOTE: "FAIR" MEANS FEW OR NO CLOUDS BELOW 12,000 FEET AGL WITH NO
       SIGNIFICANT WEATHER OR OBSTRUCTIONS TO VISION.

      THIS PRODUCT IS RELEASED AS TWO VERSIONS.  ONE VERSION NEAR
      THE TOP OF THE HOUR CONTAINING PRELIMINARY DATA FROM ALBUQUERQUE
      AND OTHER STATIONS.  A FINAL VERSION WITH ADDITIONAL DATA IS
      ISSUED ABOUT 10 MINUTES AFTER THE HOUR.

NMZ501-503-504-510>518-230500-
NORTHWEST PLATEAU/NORTHCENTRAL MOUNTAINS

CITY           SKY/WX    TMP DP  RH WIND       PRES   REMARKS
FARMINGTON     FAIR      22  13  68 E7        30.24S WCI  13
LOS ALAMOS     FAIR      27   6  41 SW5       30.21R WCI  21
SANTA FE       FAIR      17  10  74 N7        30.20S WCI   8
TAOS           FAIR      11   5  77 MISG      30.23S
ANGEL FIRE     FAIR      -3  -6  86 CALM      30.20R

$$
NMZ402-403-502-505>509-230500-
WESTCENTRAL MOUNTAINS/SOUTHWEST MOUNTAINS

CITY           SKY/WX    TMP DP  RH WIND       PRES   REMARKS
GALLUP         FAIR      14   8  77 CALM      30.24R
GRANTS         FAIR      17   0  46 NW6       30.26R WCI   9
SILVER CITY    FAIR      21  -1  38 N9        30.20S WCI  10

$$
NMZ407-409-411-412-230500-
SOUTHERN DESERTS

CITY           SKY/WX    TMP DP  RH WIND       PRES   REMARKS
DEMING         FAIR      34   1  24 VRB3      30.20R
LAS CRUCES     FAIR      33  -1  23 N6        30.21S WCI  27
HOLLOMAN AFB   FAIR      29   0  28 NW3       30.23R
ALAMOGORDO     FAIR      32   1  27 E6        30.21S WCI  26
T OR C         FAIR      37   5  26 N6        30.21R WCI  32

$$
NMZ519>523-230500-
CENTRAL VALLEYS/CENTRAL HIGHLANDS

CITY           SKY/WX    TMP DP  RH WIND       PRES   REMARKS
ALBUQUERQUE    FAIR      32  10  40 N7        30.23S WCI  26
DOUBLE EAGLE   CLEAR     23   7  50 NW10      30.23S WCI  12
MORIARTY ARPT  FAIR      22   9  57 NW6       30.22R WCI  15
CLINES CORNERS FAIR      19   6  57 NW13      30.18  WCI   6
BELEN          FAIR      25   4  40 N7        30.24S WCI  17
SOCORRO        FAIR      27   4  36 CALM      30.23S

$$
NMZ524>526-539-540-230500-
SOUTHCENTRAL MOUNTAINS

CITY           SKY/WX    TMP DP  RH WIND       PRES   REMARKS
RUIDOSO        NOT AVBL

$$
NMZ527>531-230500-
NORTHEAST HIGHLANDS/NORTHEAST PLAINS

CITY           SKY/WX    TMP DP  RH WIND       PRES   REMARKS
LAS VEGAS      FAIR      22  -7  27 N8        30.15R WCI  12
RATON          FAIR      21  -4  33 N5        30.13R WCI  15
CLAYTON        FAIR      30   1  29 NW12      30.11S WCI  20

$$
NMZ532>537-230500-
EASTCENTRAL PLAINS

CITY           SKY/WX    TMP DP  RH WIND       PRES   REMARKS
TUCUMCARI      FAIR      28  -3  26 SW6       30.13R WCI  22
CANNON AFB     FAIR      31  -1  24 W3        30.17S
CLOVIS AIRPORT FAIR      27   2  34 W3        30.17S

$$
NMZ028-029-538-230500-
SOUTHEAST PLAINS

CITY           SKY/WX    TMP DP  RH WIND       PRES   REMARKS
ROSWELL        FAIR      35   3  26 VRB5      30.18R WCI  31
ARTESIA        FAIR      36   1  23 SW10      30.20R WCI  28
CARLSBAD       FAIR      32   5  32 W8        30.19R WCI  25
HOBBS          FAIR      28   0  29 W6        30.19F WCI  22


$$




USA.gov is the U.S. government's official web portal to all federal, state and local government web resources and services.